Find Starlink 30545

NORAD ID: 58000 Int'l Des: 2023-153 Owner: SPXS Country: US Constellation: starlink operational
LEOCIRCULAR

現在のビュー

3D地球を読み込み中...

About Starlink 30545

Starlink 30545 (NORAD 58000) is a starlink constellation satellite (v2 mini) launched Oct 5, 2023 by SPXS of US. It operates in LEO, CIRCULAR orbit with a mass of 730.00 kg.

Starlink 30545について

説明を読み込み中...

次回通過

Passes for default location (London). Set your location on the main map for personalized predictions.

高度履歴

Loading altitude history...

軌道要素

1 58000U 23153K 26167.43981302 .00000891 00000-0 41908-4 0 9993
2 58000 43.0118 228.9716 0001989 279.2105 80.8522 15.27581637150006
Epoch: Jun 16, 2026 • Age: 39 hours

現在のステータス

高度 489.0 km
速度 7.62 km/s
衛星直下点 -25.77°S, 146.95°E
打ち上げ日 Oct 5, 2023
運用期間 2.6 years
タイプ internet

技術仕様

分類 Payload
質量 730.00 kg
乾燥質量 700.00 kg
総質量 730.00 kg
長さ 0.30 m
直径 4.10 m
スパン 29.00 m
形状 Box + pan
製造者 SPXS
バスタイプ Starlink V2M
フェーズステータス In Orbit
所有者/国 SPXS/US

Most Searched